sat.trackr.live / text

‹ back to catalog

ONEWEB-0636

NORAD 56077 · 2023-043AH

PAYLOAD ACTIVE UNKNOWN

§ Identity

Operator
Country
UK
Launch date
2023-03-26
Launch site
SRILR
Launch vehicle
Mass (kg)
RCS (m²)

Purposes: comms

External: N2YO · Heavens-Above · Gunter

§ Orbital elements

Epoch: 2026-09-20T04:59:20.935680Z

Period
109.46 min
Inclination
87.8988°
Eccentricity
0.0002180
Mean motion
13.15547627 rev/d
Perigee alt
1,200.1 km
Apogee alt
1,203.4 km
Semi-major
7,579.9 km
B*
-1.6973e-4
RAAN
240.2557°
Arg perigee
86.0601°
Mean anomaly
274.0778°
Rev number
16,890

§ Raw data

ONEWEB-06361 56077U 23043AH  26263.20788120 -.00000051  00000+0 -16973-3 0  99902 56077  87.8988 240.2557 0002180  86.0601 274.0778 13.15547627168902

JSON: /api/v1/satellites/56077 · /tle

For live sub-satellite position, see the globe view (requires WebGL).

§ Visibility from observer

Set your observer location to see the next 7 days of passes ≥ 10°. The values pass through the URL so the page stays shareable.

No JS? Fill the form by hand. The geolocation button needs JavaScript.